{"data":{"norad_id":69698,"intl_designator":"2026-145X","name":"STARLINK-37912","alt_names":[],"object_type":"PAYLOAD","status":"ACTIVE","operator":null,"country":"US","launch_date":"2026-06-25","launch_site_code":"AFWTR","launch_vehicle":null,"mission":null,"orbit_class":"UNKNOWN","rcs_meters":null,"size_class":null,"mass_kg":null,"dimensions":null,"purposes":["comms"],"wikipedia_slug":null,"has_3d_model":false,"image_url":null,"decayed_at":null,"tle_current":{"epoch":"2026-09-19T19:42:51.208128Z","epoch_age_seconds":80289,"freshness":"FRESH","line1":"1 69698U 26145X   26262.82142602  .00010580  00000+0  32945-3 0  9998","line2":"2 69698  97.2845 109.5676 0002140  94.1860 265.9628 15.33455597 13441","mean_motion":15.33455597,"eccentricity":0.000214,"inclination_deg":97.2845,"raan_deg":109.5676,"arg_perigee_deg":94.186,"mean_anomaly_deg":265.9628,"bstar":0.00032945,"rev_number":1344,"period_min":93.905555714633,"perigee_km":464.0471046332,"apogee_km":466.97618625345,"semimajor_km":6843.6486454433,"source":"CELESTRAK","updated_at":"2026-09-20T09:00:44.256514Z"}}}